THORAD AGENA D DEB, 5066

Orbit data source: Space-Track

THORAD AGENA D DEB, 5066 is space debris in SSO originally from a launch on Wed, 08 Apr 1970 UTC launched from the Air Force Western Test Range (AFWTR). Debris objects in space refer to the collection of defunct objects orbiting the Earth. Examples of debris include non-operational satellites, rocket bodies, and fragments generated from explosions, collisions, or faulty payload assembly.

Loading next visibility...
Identifier
5066, 1970-025JL
Orbit
SSO
Country
Flag of USUS
Related business
Manufacturer
Unknown
Mission
Spacecraft
Bus & Motor
Unknown
Mass
Unknown
Launch date (UTC)
1970-04-08 (56 years ago)
Launch vehicle
Unknown
Launch site
Air Force Western Test Range (AFWTR)
Object type
Payload
Rocket body
Debris
Shape & HBR
Unknown shape, 0.1 m
Radar Cross Section
Medium (>0.1 m² and <1 m²)

Expand to show TLE details & history
Last TLE update: 1 day ago

TLE from 1 day ago
0 THORAD AGENA D DEB
1 05066U 70025JL  26236.11977251  .00000467  00000-0  32356-3 0  9992
2 05066  99.8633 115.5252 0065112 307.9828  51.5466 14.03799440850191
Epoch: 2026-08-24T02:52Z
TLE epoch observation values (Epoch: 2026-08-24T02:52:28.344Z)
Latitude
-0.00004°
Longitude
100.00106°
Altitude
854.314 km
Speed
7.44 km/s
True Right ascension
07h 42m 06s
True Declination
0° 00' 00"
Sunlit
Object was in daylight at epoch
Visualization orbit readout
Latitude
Unknown
Longitude
Unknown
Altitude
Unknown
Speed
Unknown
Apparent Right ascension
Unknown
Apparent Declination
Unknown
Sunlit
N/A
Visualization observer readout
Local Sidereal Time
06:04:48
Azimuth
Unknown
Elevation
Unknown
Doppler factor
Unknown
Orbital elements
Apogee altitude
925.152 km
Perigee altitude
830.661 km
Semi-major axis
7,256.043 km
Eccentricity
0.00651
Inclination
99.8633°
RAAN
115.5252°
Arg. of periapsis
307.9828°
True anomaly
52.13387°
Mean anomaly
51.5466°
Eccentric anomaly
51.83994°
Mean motion
3.51151 °/min
Orbital period
102.52 mins
BSTAR
0.00032356

Documentation

Showing up to 5 results
|